Regional Weather Roundup
Issued by NWS Wakefield, VA

Current Version | Previous Version | Text Only | Print | Product List | Glossary On
Versions: 1 2 3 4 5 6 7 8 9 10 11 12 13 14 15 16 17 18 19 20 21 22 23 24 25 26 27 28 29 30 31 32 33 34 35 36 37 38 39 40 41 42 43 44 45 46 47 48 49 50
000
ASUS41 KAKQ 020715
RWRAKQ

REGIONAL WEATHER ROUNDUP
NATIONAL WEATHER SERVICE WAKEFIELD VA
300 AM EDT THU JUL 02 2015

Note: "fair" indicates few or no clouds below 12,000 feet with no
significant weather and/or obstructions to visibility. * = Denotes
station may not report precipitation (e.g., rain,snow,etc.),
thunder or fog.

VAZ042-051-052>054-056-020800-
NORTHERN VIRGINIA

CITY           SKY/WX    TMP DP  RH WIND       PRES   REMARKS
WASH NATIONAL  PTCLDY    74  70  87 CALM      29.89F
DULLES         MOCLDY    67  63  87 CALM      29.90F
FORT BELVOIR   PTCLDY    68  66  94 CALM      29.89S FOG
QUANTICO       PTCLDY    75  69  81 NE5       29.89F
FREDERICKSBRG* NOT AVBL
STAFFORD*      NOT AVBL
WARRENTON      NOT AVBL
CULPEPER*      NOT AVBL
MANASSAS*      MOCLDY    70  68  94 CALM      29.90S
LEESBURG*      NOT AVBL
WINCHESTER     NOT AVBL
FRONT ROYAL*   NOT AVBL
LURAY*         NOT AVBL
$$

VAZ048-049-060>072-079>083-020800-
CENTRAL AND SOUTH CENTRAL VIRGINIA

CITY           SKY/WX    TMP DP  RH WIND       PRES   REMARKS
RICHMOND       CLOUDY    76  71  85 SW5       29.88F
CHESTERFIELD*  NOT AVBL
PETERSBURG*    NOT AVBL
HANOVER        MOCLDY    74  71  91 CALM      29.89F
TAPPAHANNOCK*  PTCLDY    72  68  87 CALM      29.89F
QUINTON*       NOT AVBL
CHARLOTTSVILLE PTCLDY    70  63  78 CALM      29.90S
GORDONSVILLE*  NOT AVBL
ORANGE*        NOT AVBL
LOUISA*        NOT AVBL
BUMPASS*       NOT AVBL
FARMVILLE*     NOT AVBL
CREWE*         NOT AVBL
FORT PICKETT*  NOT AVBL
CHASE CITY*    NOT AVBL
CLARKSVILLE*   NOT AVBL
SOUTH HILL*    NOT AVBL
LAWRENCEVILLE* NOT AVBL
EMPORIA*       NOT AVBL
$$

VAZ088>098-020800-
SOUTHEAST VIRGINIA

CITY           SKY/WX    TMP DP  RH WIND       PRES   REMARKS
NORFOLK        MOCLDY    78  69  73 SW8       29.90F
VIRGINIA BEACH CLOUDY    79  70  74 SW7       29.90S
NORFOLK NAVAL  MOCLDY    76  70  82 SW6       29.91F
WEST POINT*    NOT AVBL
SALUDA*        NOT AVBL
NEWPORT NEWS   MOCLDY    78  71  79 SW9       29.90S
LANGLEY AFB    MOCLDY    77  71  81 W6        29.88F
FORT EUSTIS    MOCLDY    77  77 100 VRB3      29.88S
WILLIAMSBURG*  NOT AVBL
HR EXEC AP*    FAIR      73  70  88 SW6       29.92F
FRANKLIN*      CLOUDY    73  71  91 S5        29.91
WAKEFIELD      CLOUDY    76  71  85 S5        29.90F
$$

VAZ020-022-025-037-045-020800-
WEST CENTRAL AND SOUTHWEST VIRGINIA

CITY           SKY/WX    TMP DP  RH WIND       PRES   REMARKS
STAUNTON*      NOT AVBL
WAYNESBORO*    NOT AVBL
HOT SPRINGS VA CLOUDY    64  64 100 W10       30.02  FOG
LYNCHBURG      CLOUDY    71  67  87 SW3       29.92F
DANVILLE       CLOUDY    71  68  90 SW5       29.92F
SOUTH BOSTON*  NOT AVBL
MARTINSVILLE   LGT RAIN  70  70 100 CALM      29.96F
ROANOKE        CLOUDY    73  64  73 SW6       29.95S
BLACKSBURG     CLOUDY    68  65  91 SW3       30.01F
DUBLIN*        CLOUDY    67  66  97 SW3       30.00
MARION*        NOT AVBL
HILLSVILLE*    NOT AVBL
RICHLANDS*     NOT AVBL
WISE*          NOT AVBL
ABINGDON*      NOT AVBL
$$

MDZ021>025-VAZ099-100-020800-
SOUTHERN MARYLAND AND THE DELMARVA PENINSULA

CITY           SKY/WX    TMP DP  RH WIND       PRES   REMARKS
PATUXENT RIVER MOCLDY    74  69  85 CALM      29.88F
BAY BRIDGE APT   N/A     70  70 100 CALM      29.88F
LEONARDTOWN    MOCLDY    70  68  94 CALM      29.90F
DOVER          PTCLDY    71  71 100 W3        29.86F
GEORGETOWN     PTCLDY    70  66  87 CALM      29.89F
EASTON         FOG       70  70 100 CALM      29.92F VSB 3/4
CAMBRIDGE      CLEAR     72  68  88 CALM      29.89S
SALISBURY      CLEAR     70  67  90 CALM      29.89F
OCEAN CITY     NOT AVBL
WALLOPS ISLAND CLEAR     73  71  93 NW6       29.90S
ACCOMACK*      NOT AVBL
$$

NCZ012>017-030>032-020800-
NORTH CENTRAL AND EASTERN NORTH CAROLINA

CITY           SKY/WX    TMP DP  RH WIND       PRES   REMARKS
ROANOKE RAPIDS NOT AVBL
RALEIGH        CLOUDY    77  70  79 SW10      29.92F
ELIZABETH CITY MOCLDY    75  72  90 SW5       29.92F
AHOSKIE*       CLOUDY    71  70  95 CALM      29.92S FOG
EDENTON*       NOT AVBL
CURRITUCK*     NOT AVBL
KILL DEVIL HLS NOT AVBL
MANTEO         NOT AVBL
CAPE HATTERAS  CLEAR     78  75  90 W7        29.95F
TARBORO*       NOT AVBL
GOLDSBORO      CLOUDY    76  72  86 SW8       29.91F
WASHINGTON     NOT AVBL
GREENVILLE     MOCLDY    77  73  88 SW7       29.95
NEW BERN       CLEAR     74  71  91 S5        29.96S
WILMINGTON     CLEAR     79  73  82 SW10      29.96F
$$

VAZ048-020800-
ELSEWHERE

CITY           SKY/WX    TMP DP  RH WIND       PRES   REMARKS
HARRISBURG PA  PTCLDY    64  60  87 CALM      29.89S
BALTIMORE      PTCLDY    66  64  93 CALM      29.89S
ANNAPOLIS      CLEAR     72  68  87 CALM      29.88F
ANDREWS AFB    PTCLDY    68  68  99 CALM      29.88F FOG
PHILADELPHIA   PTCLDY    71  59  65 CALM      29.89F
GREENSBORO     CLOUDY    73  68  84 W5        29.94F HAZE
ROCKY MOUNT    CLOUDY    76  71  85 S6        29.92F
$$

VAZ100-020800-
MARINE

STATION/POSITION TIME  TEMP    WIND        PRES    WAVE   SWELL
                       AIR SEA DIR/SP/G            HT/PER HT/PER
                 (UTC) (F)     (DEG/KT/KT) (MB)    (FT/S) (FT/S)
BRANDYWINE LGT   0600   74 73  330/  3/  4 1012.4F
CAPE MAY NJ      0600   75 78  300/  3/  3 1011.8F
LEWES DE         0600   74 72  280/  3/  4 1012.1F
15NM E FENWICK I 0650   74 73              1012.0F   4/ 8
OCEAN-CITY-INLET 0600   74 71  170/  3/  3 1012.0F
WACHAPREAGUE VA  0600   77 82  230/  4/  5 1012.5F
GOOSES REEF MD   0700   76 78  190/  2/  2 1013.0F
COVE POINT MD    0600   74      80/  4/  5 1013.1F
SOLOMONS ISLAND  0600      80                N/A
BISHOPS HEAD MD  0600   76      20/  4/  7 1012.1F
PINEY POINT MD   0642           90/  5/  7   N/A
CAMBRIDGE MD     0600   73 80  160/  1/  3 1011.9F
LEWISETTA VA     0600   77 81  330/  6/  7 1012.1R
RAPPAHANNOCK LGT 0600          210/ 13/ 15 1012.7F
STINGRAY PT      0700   79 80  230/ 12/ 12 1011.8F   1
YORK RVR RNG VA  0600   79     250/ 12/ 14 1011.8F
YORKTOWN VA      0600   78 80  240/  8/ 12 1012.0F
JAMESTOWN VA     0700   77 83  220/  8/ 12   N/A
DOMINION TERM VA 0600   79     240/ 13/ 15 1012.3F
KIPTOPEKE VA     0600      83  250/  9/ 11   N/A
CHES BAY BRIDGE  0600   79 77  210/ 12/ 14 1012.1F
CAPE HENRY VA    0600   78     220/  6/ 11 1011.1F
WILLOUBY STN VA  0600   78     220/  7/  9 1013.5F
CAPE HENRY BUOY  0628      78                N/A     3/ 8
1ST LANDING BUOY 0700      76              1012.3F   1/ 3
CAPE CHARLES BUO 0626      76                N/A     3/ 9
OFFSHORE WE BUOY 0611      78                N/A     3/ 8   3/ 8
64NM E OF VA BCH 0650   78 77  220/  8/ 10 1012.9F   4/ 8   3/ 8
DUCK PIER NC     0600   79 62  250/ 12/ 16 1012.5F
44100 DUCK FRF   0624      77                N/A     3/ 8
44056 DUCK FRF   0611      68                N/A     2/ 8
OREGON INLET NC  0600   79 76  240/ 14/ 17 1013.8S
HATTERAS NC      0600   76 80  230/  6/  8 1014.1F
DIAMOND SHLS NC  0650   80 82  250/ 16/ 17 1014.2S   5/ 8   2/ 8
CAPE LOOKOUT NC  0600   79     240/  9/ 12 1014.3F
$$



USA.gov is the U.S. government's official web portal to all federal, state and local government web resources and services.